Wormley Airport

Jump to: basic info | weather | runways | comments

Related pages: nearby airports | nearby navaids | notams | map

Basic information (top)

Codes: 85LL
Location: lon 41.683899, lat -88.262299, elev 680 ft / 207 m msl
Status: small_airport

Weather (top)

Current conditions for Lewis University Airport 9nm (16km) ESE (rec'd 2014/07/30 18:55Z):

KLOT 301855Z AUTO 29009KT 10SM SCT090 26/13 A3003

Airport forecast for Dupage Airport 13nm (25km) N (rec'd 2014/07/30 18:21Z):

TAF KDPA 301720Z 3018/3118 31007KT P6SM FEW045 
     FM301900 34008KT P6SM VCSH BKN045 
     FM310200 25003KT P6SM SCT060 
     FM311400 26007KT P6SM SCT050

Runways (top)

N/S: 2,300 x 100 ft (701 x 30 m) — grass — not lighted

Latest comments (top)

No comments yet for Wormley Airport

More... (top)

See also NOTAMs and nearby airports and navaids, or visit the Wormley Airport page at the main OurAirports website..